Date String (YYYY-MM-DD hh:mm:ss) UTC,Instrument flags,absolute air pressure of the measurement (hPa),sample flow rate (lpm),inlet stack bypass flow (lpm),air temperature of the measurement (°C),ambient temperature measured by the external sensor (°C),aerosol sample conditioner tube jacket temperature (°C),OPC LED temperature (°C),internal box temperature (°C),relative humidity of the measurement (%),span deviation,mass concentration of particles derived from Lorenz-Mie calculation of OPC scattering (μg/m³),mass concentration of particles derived from Lorenz-Mie calculation of OPC scattering (μg/m³),mass concentration of particles derived from Lorenz-Mie calculation of OPC scattering (μg/m³)
DateTimeUTC,F1_M11,P_M11,Q1_M11,Q2_M11,T1_M11,T2_M11,T3_M11,T4_M11,T5_M11,U1_M11,ZSPAN_M11,X0_M11,X2_M11,X1_M11
2024-04-28 13:00:00,SystemResetWarning,0825.4,4.99,000.00,021.4,020.7,000.0,030.0,023.2,026.8,0000.0,0003.45,0003.20,0003.14
2024-04-28 13:01:00,SystemResetWarning,0825.4,5.00,000.00,021.4,020.7,000.0,029.9,023.2,026.8,0000.0,0003.45,0003.22,0003.16
2024-04-28 13:02:00,SystemResetWarning,0825.4,5.00,000.00,021.4,020.6,000.0,029.9,023.2,026.8,0000.0,0003.46,0003.23,0003.17
2024-04-28 13:03:00,SystemResetWarning,0825.4,5.00,000.00,021.4,020.6,000.0,029.9,023.1,026.8,0000.0,0003.88,0003.25,0003.19
2024-04-28 13:04:00,SystemResetWarning,0825.5,5.00,000.00,021.4,020.6,000.0,029.9,023.1,027.0,0000.0,0004.08,0003.27,0003.21
2024-04-28 13:05:00,SystemResetWarning,0825.5,5.00,000.00,021.4,020.6,000.0,029.9,023.1,026.9,0000.0,0004.03,0003.26,0003.21
2024-04-28 13:06:00,SystemResetWarning,0825.5,5.00,000.00,021.3,020.6,000.0,029.9,023.1,027.0,0000.0,0004.06,0003.26,0003.22
2024-04-28 13:07:00,SystemResetWarning,0825.5,4.99,000.00,021.3,020.6,000.0,029.9,023.1,027.0,0000.0,0004.15,0003.27,0003.22
2024-04-28 13:08:00,SystemResetWarning,0825.5,5.00,000.00,021.3,020.6,000.0,029.9,023.1,027.0,0000.0,0004.11,0003.27,0003.22
2024-04-28 13:09:00,SystemResetWarning,0825.5,5.00,000.00,021.3,020.6,000.0,029.9,023.1,027.0,0000.0,0004.10,0003.27,0003.23
2024-04-28 13:10:00,SystemResetWarning,0825.5,5.01,000.00,021.3,020.6,000.0,029.9,023.1,027.0,0000.0,0004.12,0003.28,0003.23
2024-04-28 13:11:00,SystemResetWarning,0825.5,4.99,000.00,021.3,020.6,000.0,029.9,023.1,026.9,0000.0,0004.15,0003.27,0003.23
2024-04-28 13:12:00,SystemResetWarning,0825.5,5.00,000.00,021.3,020.6,000.0,029.9,023.0,026.9,0000.0,0004.24,0003.29,0003.23
2024-04-28 13:13:00,SystemResetWarning,0825.5,4.99,000.00,021.3,020.6,000.0,029.9,023.1,026.9,0000.0,0004.25,0003.30,0003.24
2024-04-28 13:14:00,SystemResetWarning,0825.6,4.99,000.00,021.3,020.5,000.0,029.9,023.0,026.9,0000.0,0003.88,0003.31,0003.26
2024-04-28 13:15:00,SystemResetWarning,0825.6,5.01,000.00,021.3,020.5,000.0,029.9,023.0,026.9,0000.0,0003.70,0003.32,0003.27
2024-04-28 13:16:00,SystemResetWarning,0825.5,5.00,000.00,021.3,020.5,000.0,029.8,023.0,027.0,0000.0,0003.80,0003.35,0003.29
2024-04-28 13:17:00,SystemResetWarning,0825.6,5.01,000.00,021.3,020.5,000.0,029.8,023.0,027.0,0000.0,0003.75,0003.35,0003.29
2024-04-28 13:18:00,SystemResetWarning,0825.6,5.01,000.00,021.2,020.5,000.0,029.8,023.0,027.0,0000.0,0003.71,0003.36,0003.30
2024-04-28 13:19:00,SystemResetWarning,0825.6,4.99,000.00,021.2,020.5,000.0,029.8,023.0,027.0,0000.0,0003.74,0003.37,0003.31
2024-04-28 13:20:00,SystemResetWarning,0825.6,4.99,000.00,021.2,020.5,000.0,029.8,023.0,027.5,0000.0,0003.71,0003.36,0003.30
2024-04-28 13:21:00,SystemResetWarning,0825.6,5.00,000.00,021.2,020.5,000.0,029.8,023.0,027.6,0000.0,0003.73,0003.36,0003.30
2024-04-28 13:22:00,SystemResetWarning,0825.6,5.00,000.00,021.2,020.5,000.0,029.8,023.0,027.3,0000.0,0003.76,0003.36,0003.29
2024-04-28 13:23:00,SystemResetWarning,0825.6,5.01,000.00,021.2,020.5,000.0,029.8,023.0,027.4,0000.0,0003.72,0003.34,0003.27
2024-04-28 13:24:00,SystemResetWarning,0825.7,5.01,000.00,021.2,020.5,000.0,029.8,023.0,027.3,0000.0,0003.75,0003.32,0003.24
2024-04-28 13:25:00,SystemResetWarning,0825.7,4.99,000.00,021.2,020.5,000.0,029.8,023.0,027.2,0000.0,0003.79,0003.32,0003.23
2024-04-28 13:26:00,SystemResetWarning,0825.6,5.00,000.00,021.2,020.5,000.0,029.8,023.0,027.3,0000.0,0003.79,0003.31,0003.21
2024-04-28 13:27:00,SystemResetWarning,0825.7,4.99,000.00,021.2,020.5,000.0,029.8,023.0,027.3,0000.0,0003.70,0003.27,0003.17
2024-04-28 13:28:00,SystemResetWarning,0825.7,4.99,000.00,021.2,020.5,000.0,029.8,023.0,027.2,0000.0,0003.62,0003.23,0003.14
2024-04-28 13:29:00,SystemResetWarning,0825.7,5.00,000.00,021.2,020.5,000.0,029.8,023.0,027.1,0000.0,0003.59,0003.19,0003.09
2024-04-28 13:30:00,SystemResetWarning,0825.7,5.00,000.00,021.2,020.5,000.0,029.8,023.0,027.2,0000.0,0003.58,0003.17,0003.03
2024-04-28 13:31:00,SystemResetWarning,0825.7,5.01,000.00,021.2,020.5,000.0,029.8,023.0,027.2,0000.0,0003.59,0003.15,0002.98
2024-04-28 13:32:00,SystemResetWarning,0825.8,5.00,000.00,021.2,020.5,000.0,029.8,023.0,027.2,0000.0,0003.51,0003.12,0002.93
2024-04-28 13:33:00,SystemResetWarning,0825.8,5.00,000.00,021.2,020.5,000.0,029.7,023.0,027.2,0000.0,0003.41,0003.08,0002.89
2024-04-28 13:34:00,SystemResetWarning,0825.8,5.01,000.00,021.2,020.5,000.0,029.7,023.0,027.3,0000.0,0003.34,0003.04,0002.88
2024-04-28 13:35:00,SystemResetWarning,0825.8,5.00,000.00,021.2,020.5,000.0,029.7,023.0,027.4,0000.0,0003.25,0003.00,0002.86
2024-04-28 13:36:00,SystemResetWarning,0825.8,5.00,000.00,021.2,020.5,000.0,029.7,023.0,027.5,0000.0,0003.38,0002.95,0002.82
2024-04-28 13:37:00,SystemResetWarning,0825.9,5.00,000.00,021.2,020.5,000.0,029.7,023.0,027.6,0000.0,0003.45,0002.93,0002.79
2024-04-28 13:38:00,SystemResetWarning,0825.9,5.00,000.00,021.2,020.5,000.0,029.7,023.0,027.5,0000.0,0003.43,0002.91,0002.79
2024-04-28 13:39:00,SystemResetWarning,0825.9,5.00,000.00,021.2,020.5,000.0,029.7,023.0,027.5,0000.0,0003.50,0002.94,0002.81
2024-04-28 13:40:00,SystemResetWarning,0825.9,5.00,000.00,021.2,020.4,000.0,029.7,022.9,027.5,0000.0,0003.57,0003.00,0002.85
2024-04-28 13:41:00,SystemResetWarning,0825.9,5.00,000.00,021.2,020.4,000.0,029.7,022.9,027.6,0000.0,0003.60,0003.03,0002.89
2024-04-28 13:42:00,SystemResetWarning,0825.8,5.00,000.00,021.1,020.4,000.0,029.7,022.9,027.6,0000.0,0003.68,0003.08,0002.93
2024-04-28 13:43:00,SystemResetWarning,0825.8,5.00,000.00,021.1,020.4,000.0,029.7,022.9,027.6,0000.0,0003.80,0003.12,0002.98
2024-04-28 13:44:00,SystemResetWarning,0825.8,5.01,000.00,021.1,020.4,000.0,029.7,022.9,027.7,0000.0,0003.88,0003.14,0003.00
2024-04-28 13:45:00,SystemResetWarning,0825.8,5.01,000.00,021.1,020.4,000.0,029.7,022.9,027.7,0000.0,0003.97,0003.17,0003.02
2024-04-28 13:46:00,SystemResetWarning,0825.8,5.00,000.00,021.1,020.4,000.0,029.7,022.9,027.8,0000.0,0004.00,0003.19,0003.05
2024-04-28 13:47:00,SystemResetWarning,0825.8,5.00,000.00,021.1,020.4,000.0,029.7,022.9,027.9,0000.0,0003.79,0003.20,0003.09
2024-04-28 13:48:00,SystemResetWarning,0825.7,4.99,000.00,021.1,020.4,000.0,029.7,022.9,027.6,0000.0,0003.76,0003.22,0003.11
2024-04-28 13:49:00,SystemResetWarning,0825.8,5.00,000.00,021.1,020.4,000.0,029.7,022.9,027.5,0000.0,0003.85,0003.27,0003.16
2024-04-28 13:50:00,SystemResetWarning,0825.8,5.00,000.00,021.1,020.4,000.0,029.7,022.9,027.3,0000.0,0003.92,0003.31,0003.19
2024-04-28 13:51:00,SystemResetWarning,0825.9,4.99,000.00,021.1,020.4,000.0,029.7,022.9,027.4,0000.0,0003.93,0003.35,0003.23
2024-04-28 13:52:00,SystemResetWarning,0825.9,4.99,000.00,021.1,020.4,000.0,029.7,022.9,027.6,0000.0,0003.96,0003.37,0003.25
2024-04-28 13:53:00,SystemResetWarning,0825.9,5.00,000.00,021.1,020.5,000.0,029.7,022.9,027.4,0000.0,0003.95,0003.39,0003.28
2024-04-28 13:54:00,SystemResetWarning,0825.9,5.01,000.00,021.1,020.5,000.0,029.7,022.9,027.3,0000.0,0004.04,0003.44,0003.32
2024-04-28 13:55:00,SystemResetWarning,0826.0,5.01,000.00,021.1,020.5,000.0,029.7,022.9,027.3,0000.0,0004.10,0003.50,0003.38
2024-04-28 13:56:00,SystemResetWarning,0825.9,5.00,000.00,021.1,020.5,000.0,029.7,023.0,027.4,0000.0,0004.11,0003.52,0003.41
2024-04-28 13:57:00,SystemResetWarning,0825.9,4.99,000.00,021.1,020.5,000.0,029.7,023.0,027.4,0000.0,0004.17,0003.56,0003.44
2024-04-28 13:58:00,SystemResetWarning,0825.9,4.99,000.00,021.1,020.5,000.0,029.7,023.0,027.3,0000.0,0004.27,0003.61,0003.48
2024-04-28 13:59:00,SystemResetWarning,0825.8,4.99,000.00,021.1,020.5,000.0,029.7,023.0,027.2,0000.0,0004.28,0003.63,0003.51
